Torna al catalogo

APOLINK IPOS

AttivoComunicazioniSSO
NORAD 69877·PAYLOAD·🇺🇸 United States
Questo nome del satellite non è ancora stato confermato da fonti ufficiali.

Lanciato Jul 7, 2026 da Vandenberg Space Force Base

Loading…

Prossimi Passaggi (prossime 24 ore)

TLE

AggiornatoSource: Space-Track

Epoca: Sep 13, 2026, 23:23 UTC

1 69877U 26156J   26256.97460996  .00002618  00000-0  26616-3 0  9999
2 69877  97.7461 156.2588 0003321 281.9442  78.1404 14.91639701 10238

Traccia APOLINK IPOS in tempo reale con AllMySat

Download on the App Store